Time,TemperatureF,DewpointF,PressureIn,WindDirection,WindDirectionDegrees,WindSpeedMPH,WindSpeedGustMPH,Humidity,HourlyPrecipIn,Conditions,Clouds,dailyrainin,SolarRadiationWatts/m^2,SoftwareType,DateUTC
2013-07-18 00:02:00,74.0,68.0,-100.00,SSE,147,1.0,4.0,83,0.00,,,0.00,0.000000,,2013-07-18 05:02:00,
2013-07-18 00:32:00,72.0,69.0,-100.00,SSW,193,1.0,4.0,89,0.00,,,0.00,0.000000,,2013-07-18 05:32:00,
2013-07-18 00:42:00,72.0,69.0,-100.00,SSW,193,1.0,4.0,89,0.00,,,0.00,0.000000,,2013-07-18 05:42:00,
2013-07-18 00:52:00,72.0,69.0,-100.00,SSW,193,1.0,4.0,89,0.00,,,0.00,0.000000,,2013-07-18 05:52:00,
2013-07-18 01:01:00,72.0,69.0,-100.00,SSW,193,1.0,4.0,89,0.00,,,0.00,0.000000,,2013-07-18 06:01:00,
2013-07-18 01:32:00,71.0,69.0,-100.00,SE,144,0.0,1.0,92,0.00,,,0.00,0.000000,,2013-07-18 06:32:00,
2013-07-18 01:43:00,71.0,69.0,-100.00,SE,144,0.0,1.0,92,0.00,,,0.00,0.000000,,2013-07-18 06:43:00,
2013-07-18 01:52:00,71.0,69.0,-100.00,SE,144,0.0,1.0,92,0.00,,,0.00,0.000000,,2013-07-18 06:52:00,
2013-07-18 02:01:00,71.0,69.0,-100.00,SE,144,0.0,1.0,92,0.00,,,0.00,0.000000,,2013-07-18 07:01:00,
2013-07-18 06:32:00,70.0,68.0,-100.00,South,169,1.0,4.0,94,-99.99,,,0.00,2.000000,,2013-07-18 11:32:00,
2013-07-18 06:43:00,70.0,68.0,-100.00,South,169,1.0,4.0,94,-99.99,,,0.00,2.000000,,2013-07-18 11:43:00,
2013-07-18 06:52:00,70.0,68.0,-100.00,South,169,1.0,4.0,94,-99.99,,,0.00,2.000000,,2013-07-18 11:52:00,
2013-07-18 07:02:00,70.0,68.0,-100.00,South,169,1.0,4.0,94,-99.99,,,0.00,2.000000,,2013-07-18 12:02:00,
2013-07-18 07:33:00,76.0,72.0,-100.00,SSW,193,4.0,7.0,86,0.00,,,0.00,65.000000,,2013-07-18 12:33:00,
2013-07-18 07:42:00,76.0,72.0,-100.00,SSW,193,4.0,7.0,86,0.00,,,0.00,65.000000,,2013-07-18 12:42:00,
2013-07-18 07:52:00,76.0,72.0,-100.00,SSW,193,4.0,7.0,86,0.00,,,0.00,65.000000,,2013-07-18 12:52:00,
2013-07-18 08:01:00,76.0,72.0,-100.00,SSW,193,4.0,7.0,86,0.00,,,0.00,65.000000,,2013-07-18 13:01:00,
2013-07-18 08:33:00,81.0,72.0,-100.00,SW,214,6.0,13.0,73,0.00,,,0.00,195.000000,,2013-07-18 13:33:00,
2013-07-18 08:43:00,81.0,72.0,-100.00,SW,214,6.0,13.0,73,0.00,,,0.00,195.000000,,2013-07-18 13:43:00,
2013-07-18 08:53:00,81.0,72.0,-100.00,SW,214,6.0,13.0,73,0.00,,,0.00,195.000000,,2013-07-18 13:53:00,
2013-07-18 09:02:00,81.0,72.0,-100.00,SW,214,6.0,13.0,73,0.00,,,0.00,195.000000,,2013-07-18 14:02:00,
2013-07-18 09:33:00,84.0,71.0,-100.00,SW,221,8.0,16.0,65,0.00,,,0.00,323.000000,,2013-07-18 14:33:00,
2013-07-18 09:43:00,84.0,71.0,-100.00,SW,221,8.0,16.0,65,0.00,,,0.00,323.000000,,2013-07-18 14:43:00,
2013-07-18 09:53:00,84.0,71.0,-100.00,SW,221,8.0,16.0,65,0.00,,,0.00,323.000000,,2013-07-18 14:53:00,
2013-07-18 10:01:00,84.0,71.0,-100.00,SW,221,8.0,16.0,65,0.00,,,0.00,323.000000,,2013-07-18 15:01:00,
2013-07-18 10:32:00,87.0,70.0,-100.00,SW,223,10.0,19.0,58,0.00,,,0.00,487.000000,,2013-07-18 15:32:00,
2013-07-18 10:43:00,87.0,70.0,-100.00,SW,223,10.0,19.0,58,0.00,,,0.00,487.000000,,2013-07-18 15:43:00,
2013-07-18 10:53:00,87.0,70.0,-100.00,SW,223,10.0,19.0,58,0.00,,,0.00,487.000000,,2013-07-18 15:53:00,
2013-07-18 11:01:00,87.0,70.0,-100.00,SW,223,10.0,19.0,58,0.00,,,0.00,487.000000,,2013-07-18 16:01:00,
2013-07-18 11:32:00,90.0,70.0,-100.00,SW,222,11.0,21.0,52,0.00,,,0.00,649.000000,,2013-07-18 16:32:00,
2013-07-18 11:42:00,90.0,70.0,-100.00,SW,222,11.0,21.0,52,0.00,,,0.00,649.000000,,2013-07-18 16:42:00,
2013-07-18 11:52:00,90.0,70.0,-100.00,SW,222,11.0,21.0,52,0.00,,,0.00,649.000000,,2013-07-18 16:52:00,
2013-07-18 12:02:00,90.0,70.0,-100.00,SW,222,11.0,21.0,52,0.00,,,0.00,649.000000,,2013-07-18 17:02:00,
2013-07-18 12:33:00,91.0,69.0,-100.00,SW,229,12.0,21.0,48,0.00,,,0.00,750.000000,,2013-07-18 17:33:00,
2013-07-18 12:43:00,91.0,69.0,-100.00,SW,229,12.0,21.0,48,0.00,,,0.00,750.000000,,2013-07-18 17:43:00,
2013-07-18 12:52:00,91.0,69.0,-100.00,SW,229,12.0,21.0,48,0.00,,,0.00,750.000000,,2013-07-18 17:52:00,
2013-07-18 13:01:00,91.0,69.0,-100.00,SW,229,12.0,21.0,48,0.00,,,0.00,750.000000,,2013-07-18 18:01:00,
2013-07-18 13:33:00,93.0,68.0,-100.00,SW,222,13.0,21.0,45,0.00,,,0.00,818.000000,,2013-07-18 18:33:00,
2013-07-18 13:43:00,93.0,68.0,-100.00,SW,222,13.0,21.0,45,0.00,,,0.00,818.000000,,2013-07-18 18:43:00,
2013-07-18 13:52:00,93.0,68.0,-100.00,SW,222,13.0,21.0,45,0.00,,,0.00,818.000000,,2013-07-18 18:52:00,
2013-07-18 14:02:00,93.0,68.0,-100.00,SW,222,13.0,21.0,45,0.00,,,0.00,818.000000,,2013-07-18 19:02:00,
2013-07-18 14:32:00,93.0,68.0,-100.00,SSW,211,14.0,26.0,44,0.00,,,0.00,838.000000,,2013-07-18 19:32:00,
2013-07-18 14:43:00,93.0,68.0,-100.00,SSW,211,14.0,26.0,44,0.00,,,0.00,838.000000,,2013-07-18 19:43:00,
2013-07-18 14:53:00,93.0,68.0,-100.00,SSW,211,14.0,26.0,44,0.00,,,0.00,838.000000,,2013-07-18 19:53:00,
2013-07-18 15:02:00,93.0,68.0,-100.00,SSW,211,14.0,26.0,44,0.00,,,0.00,838.000000,,2013-07-18 20:02:00,
2013-07-18 15:32:00,94.0,67.0,-100.00,SW,229,13.0,26.0,42,0.00,,,0.00,793.000000,,2013-07-18 20:32:00,
2013-07-18 15:43:00,94.0,67.0,-100.00,SW,229,13.0,26.0,42,0.00,,,0.00,793.000000,,2013-07-18 20:43:00,
2013-07-18 15:52:00,94.0,67.0,-100.00,SW,229,13.0,26.0,42,0.00,,,0.00,793.000000,,2013-07-18 20:52:00,
2013-07-18 16:01:00,94.0,67.0,-100.00,SW,229,13.0,26.0,42,0.00,,,0.00,793.000000,,2013-07-18 21:01:00,
2013-07-18 16:32:00,94.0,67.0,-100.00,SW,226,14.0,24.0,41,0.00,,,0.00,750.000000,,2013-07-18 21:32:00,
2013-07-18 16:43:00,94.0,67.0,-100.00,SW,226,14.0,24.0,41,0.00,,,0.00,750.000000,,2013-07-18 21:43:00,
2013-07-18 16:52:00,94.0,67.0,-100.00,SW,226,14.0,24.0,41,0.00,,,0.00,750.000000,,2013-07-18 21:52:00,
2013-07-18 17:01:00,94.0,67.0,-100.00,SW,226,14.0,24.0,41,0.00,,,0.00,750.000000,,2013-07-18 22:01:00,
2013-07-18 17:32:00,94.0,67.0,-100.00,SW,220,13.0,26.0,42,0.00,,,0.00,624.000000,,2013-07-18 22:32:00,
2013-07-18 17:43:00,94.0,67.0,-100.00,SW,220,13.0,26.0,42,0.00,,,0.00,624.000000,,2013-07-18 22:43:00,
2013-07-18 17:53:00,94.0,67.0,-100.00,SW,220,13.0,26.0,42,0.00,,,0.00,624.000000,,2013-07-18 22:53:00,
2013-07-18 18:02:00,94.0,67.0,-100.00,SW,220,13.0,26.0,42,0.00,,,0.00,624.000000,,2013-07-18 23:02:00,
2013-07-18 18:32:00,93.0,66.0,-100.00,SW,231,11.0,25.0,42,0.00,,,0.00,481.000000,,2013-07-18 23:32:00,
2013-07-18 18:42:00,93.0,66.0,-100.00,SW,231,11.0,25.0,42,0.00,,,0.00,481.000000,,2013-07-18 23:42:00,
2013-07-18 18:52:00,93.0,66.0,-100.00,SW,231,11.0,25.0,42,0.00,,,0.00,481.000000,,2013-07-18 23:52:00,
2013-07-18 19:01:00,93.0,66.0,-100.00,SW,231,11.0,25.0,42,0.00,,,0.00,481.000000,,2013-07-19 00:01:00,
2013-07-18 19:32:00,91.0,67.0,-100.00,SSW,213,9.0,22.0,46,0.00,,,0.00,265.000000,,2013-07-19 00:32:00,
2013-07-18 19:43:00,91.0,67.0,-100.00,SSW,213,9.0,22.0,46,0.00,,,0.00,265.000000,,2013-07-19 00:43:00,
2013-07-18 19:52:00,91.0,67.0,-100.00,SSW,213,9.0,22.0,46,0.00,,,0.00,265.000000,,2013-07-19 00:52:00,
2013-07-18 20:01:00,91.0,67.0,-100.00,SSW,213,9.0,22.0,46,0.00,,,0.00,265.000000,,2013-07-19 01:01:00,
2013-07-18 20:32:00,88.0,66.0,-100.00,SW,222,9.0,20.0,49,0.00,,,0.00,83.000000,,2013-07-19 01:32:00,
2013-07-18 20:42:00,88.0,66.0,-100.00,SW,222,9.0,20.0,49,0.00,,,0.00,83.000000,,2013-07-19 01:42:00,
2013-07-18 20:52:00,88.0,66.0,-100.00,SW,222,9.0,20.0,49,0.00,,,0.00,83.000000,,2013-07-19 01:52:00,
2013-07-18 21:02:00,88.0,66.0,-100.00,SW,222,9.0,20.0,49,0.00,,,0.00,83.000000,,2013-07-19 02:02:00,
2013-07-18 21:32:00,86.0,68.0,-100.00,SW,217,8.0,14.0,55,0.00,,,0.00,21.000000,,2013-07-19 02:32:00,
2013-07-18 21:43:00,86.0,68.0,-100.00,SW,217,8.0,14.0,55,0.00,,,0.00,21.000000,,2013-07-19 02:43:00,
2013-07-18 21:52:00,86.0,68.0,-100.00,SW,217,8.0,14.0,55,0.00,,,0.00,21.000000,,2013-07-19 02:52:00,
2013-07-18 22:01:00,86.0,68.0,-100.00,SW,217,8.0,14.0,55,0.00,,,0.00,21.000000,,2013-07-19 03:01:00,
2013-07-18 22:32:00,84.0,68.0,-100.00,SSW,213,8.0,14.0,58,0.00,,,0.00,0.000000,,2013-07-19 03:32:00,
2013-07-18 22:43:00,84.0,68.0,-100.00,SSW,213,8.0,14.0,58,0.00,,,0.00,0.000000,,2013-07-19 03:43:00,
2013-07-18 22:52:00,84.0,68.0,-100.00,SSW,213,8.0,14.0,58,0.00,,,0.00,0.000000,,2013-07-19 03:52:00,
2013-07-18 23:02:00,84.0,68.0,-100.00,SSW,213,8.0,14.0,58,0.00,,,0.00,0.000000,,2013-07-19 04:02:00,
2013-07-18 23:33:00,84.0,68.0,-100.00,SSW,211,9.0,16.0,59,0.00,,,0.00,0.000000,,2013-07-19 04:33:00,
2013-07-18 23:44:00,84.0,68.0,-100.00,SSW,211,9.0,16.0,59,0.00,,,0.00,0.000000,,2013-07-19 04:44:00,
2013-07-18 23:52:00,84.0,68.0,-100.00,SSW,211,9.0,16.0,59,0.00,,,0.00,0.000000,,2013-07-19 04:52:00,